Location: Clover
(42.5131°N, 114.6874°W)
Time: 15:47:57
(UTC+00:00)

ARIANE 6 FM1 Upper Stage - Pass Details

Date: 23 January 2026
Orbit: 522 x 608 km, 62.0° (Epoch: 17 February)

Event Time Altitude Azimuth Distance (km) Brightness Sun altitude
Rises 03:09:22 0° 241° (WSW) 2,706 7.1 -27.4°
Reaches altitude 10° 03:11:45 10° 251° (WSW) 1,802 6.1 -27.8°
Enters shadow 03:14:56 31° 300° (WNW) 950 4.2 -28.4°
